Harvey, ND

8:30 AM CDT on October 23, 2019 (GMT -0500)
Harvey

Weather History for K5H4 - September, 2019

Change the Weather History Date:

Tuesday, September 17, 2019

  Actual Average (KRUG) Record (KRUG)
Temperature  
Mean Temperature 75 °F -  
Max Temperature 86 °F 69 °F 93 °F (1989)
Min Temperature 64 °F 43 °F 27 °F (1959)
Cooling Degree Days 10    
Growing Degree Days 25 (Base 50)    
Moisture  
Dew Point 67 °F    
Average Humidity 81    
Maximum Humidity 100    
Minimum Humidity 55    
Precipitation  
Precipitation 0.00 in - - ()
Sea Level Pressure  
Sea Level Pressure 29.63 in    
Wind  
Wind Speed 10 mph (SSE)    
Max Wind Speed 16 mph    
Max Gust Speed 22 mph    
Visibility 10 miles    
Events      
Averages and records for this station are not official NWS values.
T = Trace of Precipitation, MM = Missing Value Source: NWS Daily Summary

Daily Weather History Graph

Daily Weather History Graph

Search for Another Location

Airport or City:

Astronomy

Sep. 17, 2019 Rise Set
Actual Time 7:19 AM CDT 7:48 PM CDT
Civil Twilight 6:48 AM CDT 8:19 PM CDT
Nautical Twilight 6:11 AM CDT 8:55 PM CDT
Astronomical Twilight 5:33 AM CDT 9:33 PM CDT
Moon 9:38 PM CDT (9/17) 10:37 AM CDT (9/17)
Length of Visible Light 13h 30m
Length of Day
12h 28m
Waning Gibbous, 89% of the Moon is Illuminated
Sep 17
Waning Gibbous
Sep 21
Last Quarter
Sep 28
New
Oct 5
First Quarter
Oct 13
Full

Hourly Weather History & Observations

Time (CDT) Temp. Heat Index Dew Point Humidity Pressure Visibility Wind Dir Wind Speed Gust Speed Precip Events Conditions
12:15 AM 71.6 °F - 69.8 °F 94% 29.71 in 10.0 mi South 11.5 mph - N/A   Clear
12:35 AM 69.8 °F - 68.0 °F 94% 29.71 in 10.0 mi South 10.4 mph - N/A   Clear
12:55 AM 69.8 °F - 68.0 °F 94% 29.70 in 10.0 mi SSE 10.4 mph 18.4 mph N/A   Clear
1:15 AM 69.8 °F - 68.0 °F 94% 29.70 in 10.0 mi SSE 8.1 mph 16.1 mph N/A   Clear
1:35 AM 69.8 °F - 68.0 °F 94% 29.70 in 10.0 mi SSE 8.1 mph 15.0 mph N/A   Clear
1:55 AM 69.8 °F - 68.0 °F 94% 29.69 in 10.0 mi SE 9.2 mph 16.1 mph N/A   Clear
2:15 AM 68.0 °F - 68.0 °F 100% 29.69 in 10.0 mi SE 6.9 mph - N/A   Clear
2:35 AM 68.0 °F - 68.0 °F 100% 29.69 in 10.0 mi SSE 12.7 mph - N/A   Clear
2:55 AM 68.0 °F - 68.0 °F 100% 29.69 in 10.0 mi SSE 11.5 mph - N/A   Clear
3:15 AM 68.0 °F - 68.0 °F 100% 29.69 in 10.0 mi SSE 11.5 mph - N/A   Clear
3:35 AM 68.0 °F - 68.0 °F 100% 29.68 in 10.0 mi SSE 12.7 mph - N/A   Clear
3:55 AM 68.0 °F - 68.0 °F 100% 29.68 in 10.0 mi SSE 10.4 mph - N/A   Clear
4:15 AM 68.0 °F - 68.0 °F 100% 29.68 in 10.0 mi SSE 11.5 mph - N/A   Clear
4:35 AM 68.0 °F - 68.0 °F 100% 29.68 in 10.0 mi SSE 10.4 mph - N/A   Clear
4:55 AM 68.0 °F - 68.0 °F 100% 29.68 in 9.0 mi SSE 9.2 mph - N/A   Clear
5:15 AM 68.0 °F - 68.0 °F 100% 29.68 in 10.0 mi SSE 9.2 mph - N/A   Clear
5:35 AM 68.0 °F - 68.0 °F 100% 29.67 in 9.0 mi SSE 10.4 mph - N/A   Clear
5:55 AM 68.0 °F - 68.0 °F 100% 29.68 in 10.0 mi SSE 8.1 mph - N/A   Clear
6:15 AM 66.2 °F - 66.2 °F 100% 29.68 in 9.0 mi SE 6.9 mph - N/A   Clear
6:35 AM 64.4 °F - 64.4 °F 100% 29.68 in 5.0 mi ESE 6.9 mph - N/A   Clear
6:55 AM 64.4 °F - 64.4 °F 100% 29.67 in 7.0 mi SE 8.1 mph - N/A   Clear
7:15 AM 64.4 °F - 64.4 °F 100% 29.67 in 6.0 mi SE 9.2 mph - N/A   Clear
7:35 AM 66.2 °F - 66.2 °F 100% 29.67 in 7.0 mi SE 8.1 mph - N/A   Clear
7:55 AM 66.2 °F - 66.2 °F 100% 29.67 in 7.0 mi SE 6.9 mph - N/A   Clear
8:15 AM 66.2 °F - 66.2 °F 100% 29.67 in 7.0 mi ESE 5.8 mph - N/A   Clear
8:35 AM 68.0 °F - 68.0 °F 100% 29.67 in 8.0 mi ESE 8.1 mph - N/A   Clear
8:55 AM 68.0 °F - 68.0 °F 100% 29.67 in 8.0 mi SE 8.1 mph - N/A   Clear
9:15 AM 69.8 °F - 68.0 °F 94% 29.66 in 9.0 mi SE 8.1 mph - N/A   Clear
9:35 AM 69.8 °F - 68.0 °F 94% 29.66 in 9.0 mi SE 12.7 mph - N/A   Clear
9:55 AM 71.6 °F - 68.0 °F 88% 29.66 in 9.0 mi SE 10.4 mph - N/A   Clear
10:15 AM 73.4 °F - 68.0 °F 83% 29.65 in 10.0 mi SSE 12.7 mph 18.4 mph N/A   Clear
10:35 AM 75.2 °F - 68.0 °F 78% 29.65 in 10.0 mi SSE 11.5 mph - N/A   Clear
11:15 AM 77.0 °F - 68.0 °F 74% 29.65 in 10.0 mi SSE 11.5 mph - N/A   Clear
11:35 AM 77.0 °F - 68.0 °F 74% 29.64 in 10.0 mi SSE 10.4 mph - N/A   Clear
11:55 AM 78.8 °F - 68.0 °F 69% 29.64 in 10.0 mi SSE 11.5 mph - N/A   Clear
12:15 PM 80.6 °F 83.2 °F 68.0 °F 65% 29.64 in 9.0 mi SE 11.5 mph 17.3 mph N/A   Clear
12:35 PM 80.6 °F 83.2 °F 68.0 °F 65% 29.64 in 10.0 mi SE 12.7 mph - N/A   Clear
12:55 PM 80.6 °F 83.2 °F 68.0 °F 65% 29.63 in 10.0 mi SE 12.7 mph - N/A   Clear
1:15 PM 82.4 °F 85.4 °F 68.0 °F 62% 29.63 in 10.0 mi SSE 10.4 mph 18.4 mph N/A   Clear
1:35 PM 84.2 °F 87.3 °F 68.0 °F 58% 29.62 in 10.0 mi SSE 12.7 mph - N/A   Clear
1:55 PM 84.2 °F 86.6 °F 66.2 °F 55% 29.61 in 10.0 mi SSE 11.5 mph 17.3 mph N/A   Clear
2:15 PM 84.2 °F 87.3 °F 68.0 °F 58% 29.61 in 10.0 mi SSE 11.5 mph 17.3 mph N/A   Clear
2:35 PM 82.4 °F 85.4 °F 68.0 °F 62% 29.61 in 10.0 mi SSE 12.7 mph 18.4 mph N/A   Clear
2:55 PM 84.2 °F 87.3 °F 68.0 °F 58% 29.60 in 10.0 mi SE 11.5 mph - N/A   Clear
3:15 PM 86.0 °F 89.4 °F 68.0 °F 55% 29.60 in 9.0 mi SE 13.8 mph - N/A   Clear
3:35 PM 84.2 °F 87.3 °F 68.0 °F 58% 29.60 in 10.0 mi SE 11.5 mph - N/A   Clear
3:55 PM 84.2 °F 87.3 °F 68.0 °F 58% 29.60 in 10.0 mi SSE 13.8 mph - N/A   Clear
4:15 PM 84.2 °F 87.3 °F 68.0 °F 58% 29.60 in 10.0 mi SSE 16.1 mph - N/A   Clear
4:35 PM 84.2 °F 87.3 °F 68.0 °F 58% 29.59 in 10.0 mi SSE 16.1 mph - N/A   Clear
4:55 PM 84.2 °F 87.3 °F 68.0 °F 58% 29.59 in 10.0 mi South 15.0 mph 21.9 mph N/A   Clear
5:15 PM 84.2 °F 86.6 °F 66.2 °F 55% 29.58 in 10.0 mi South 15.0 mph - N/A   Clear
5:35 PM 82.4 °F 84.6 °F 66.2 °F 58% 29.58 in 10.0 mi SSE 12.7 mph - N/A   Clear
5:55 PM 82.4 °F 85.4 °F 68.0 °F 62% 29.58 in 10.0 mi SSE 11.5 mph 17.3 mph N/A   Clear
6:15 PM 82.4 °F 85.4 °F 68.0 °F 62% 29.58 in 10.0 mi SSE 11.5 mph - N/A   Clear
6:35 PM 80.6 °F 83.2 °F 68.0 °F 65% 29.58 in 10.0 mi SSE 10.4 mph - N/A   Clear
6:55 PM 80.6 °F 83.2 °F 68.0 °F 65% 29.58 in 10.0 mi SSE 10.4 mph - N/A   Clear
7:15 PM 78.8 °F - 68.0 °F 69% 29.58 in 10.0 mi SSE 8.1 mph - N/A   Clear
7:35 PM 77.0 °F - 68.0 °F 74% 29.58 in 10.0 mi SE 5.8 mph - N/A   Clear
7:55 PM 75.2 °F - 68.0 °F 78% 29.58 in 10.0 mi SE 6.9 mph - N/A   Clear
8:15 PM 75.2 °F - 68.0 °F 78% 29.59 in 10.0 mi SSE 8.1 mph - N/A   Clear
8:55 PM 73.4 °F - 68.0 °F 83% 29.58 in 10.0 mi SE 9.2 mph - N/A   Clear
9:15 PM 73.4 °F - 68.0 °F 83% 29.59 in 10.0 mi South 8.1 mph - N/A   Clear
9:35 PM 73.4 °F - 68.0 °F 83% 29.58 in 10.0 mi South 9.2 mph - N/A   Clear
9:55 PM 73.4 °F - 68.0 °F 83% 29.59 in 10.0 mi South 9.2 mph - N/A   Clear
10:15 PM 73.4 °F - 66.2 °F 78% 29.59 in 10.0 mi South 11.5 mph - N/A   Clear
10:35 PM 75.2 °F - 66.2 °F 73% 29.59 in 10.0 mi SSW 10.4 mph 18.4 mph N/A   Clear
10:55 PM 73.4 °F - 64.4 °F 73% 29.58 in 10.0 mi South 9.2 mph - N/A   Clear
11:15 PM 73.4 °F - 64.4 °F 73% 29.57 in 10.0 mi South 8.1 mph - N/A   Clear
11:35 PM 73.4 °F - 64.4 °F 73% 29.57 in 10.0 mi SSW 5.8 mph - N/A   Clear
11:55 PM 71.6 °F - 62.6 °F 73% 29.56 in 10.0 mi SSW 6.9 mph - N/A   Clear